STARLINK-34085 (64036 NORAD) Tracking and Keplerian Element Data

This shows tracking and keplerian element data for the satellite.

Feedback or suggestion? Click here.




ElementValue
Catalog64036
NameSTARLINK-34085
Epoch Orbit3403
Epoch Day354.13833334
Epoch Year2025
RAAN315.1276
Inclination70.0023
Eccentricity0.0002538
Argument of Perigee278.4245
Mean Anonmoly81.6626
Mean Motion14.98330302
Decay Rate1.288E-05
L11 64036U 25102Q 25354.13833334 .00001288 00000+0 11568-3 0 9998
L22 64036 70.0023 315.1276 0002538 278.4245 81.6626 14.98330302 34030



Live tracking and technical data element details for STARLINK-34085 (NORAD 64036). STARLINK-34085 can be tracked NOW for your location showing map with azimuth and elevation plus other details from your city location.







IsCatalogInMostPopularTable: catalog: 64036, numindb: 7
Update: records affected: 1



GetName: 64036 STARLINK-34085

Hit Count: updated at: Tue, 21 Apr 2026 20:11:57 GMT